| time (UTC) | temp F | wind direction | speed knots | gust knots | rain 1hr in | rain 24hr in | rain mn in | humidity % | barometer mb |
| 20260507210025 | 65 | 34 | 0.0 | 2.6 | 0.00 | 0.22 | 0.05 | 36 | 1007.9 |
| 20260507204524 | 64 | 161 | 0.9 | 4.3 | 0.00 | 0.22 | 0.05 | 36 | 1007.9 |
| 20260507203003 | 64 | 164 | 0.9 | 3.5 | 0.00 | 0.22 | 0.05 | 38 | 1007.9 |
| 20260507201509 | 65 | 119 | 1.7 | 4.3 | 0.00 | 0.22 | 0.05 | 39 | 1007.9 |
| 20260507200015 | 63 | 360 | 2.6 | 6.1 | 0.00 | 0.22 | 0.05 | 38 | 1008.0 |
| 20260507194530 | 63 | 85 | 0.9 | 3.5 | 0.00 | 0.22 | 0.05 | 37 | 1008.4 |
| 20260507193023 | 64 | 174 | 0.9 | 2.6 | 0.00 | 0.22 | 0.05 | 38 | 1008.5 |
| 20260507191508 | 63 | 9 | 0.9 | 5.2 | 0.00 | 0.22 | 0.05 | 37 | 1008.7 |
| 20260507190013 | 64 | 48 | 0.9 | 1.7 | 0.00 | 0.22 | 0.05 | 1008.9 | |
| 20260507184521 | 63 | 159 | 0.9 | 4.3 | 0.00 | 0.22 | 0.05 | 37 | 1008.9 |
| 20260507183023 | 64 | 105 | 0.9 | 2.6 | 0.00 | 0.22 | 0.05 | 38 | 1009.0 |
| 20260507181528 | 64 | 270 | 0.9 | 2.6 | 0.00 | 0.22 | 0.05 | 39 | 1009.2 |
| 20260507180015 | 63 | 110 | 0.9 | 3.5 | 0.00 | 0.22 | 0.05 | 38 | 1009.2 |
| 20260507174508 | 63 | 328 | 0.9 | 6.1 | 0.00 | 0.22 | 0.05 | 36 | 1009.4 |
| 20260507173009 | 62 | 231 | 1.7 | 4.3 | 0.00 | 0.22 | 0.05 | 1009.6 | |
| 20260507171506 | 62 | 12 | 3.5 | 6.1 | 0.00 | 0.22 | 0.05 | 38 | 1010.0 |
| 20260507170013 | 63 | 239 | 0.9 | 3.5 | 0.00 | 0.23 | 0.05 | 40 | 1010.3 |
| 20260507164522 | 62 | 191 | 0.9 | 4.3 | 0.00 | 0.24 | 0.05 | 45 | 1010.5 |
| 20260507163003 | 61 | 19 | 2.6 | 7.0 | 0.00 | 0.26 | 0.05 | 42 | 1010.7 |
| 20260507161503 | 62 | 9 | 0.9 | 5.2 | 0.00 | 0.26 | 0.05 | 44 | 1010.7 |
| 20260507160007 | 60 | 15 | 0.9 | 8.7 | 0.00 | 0.27 | 0.05 | 45 | 1010.9 |
| 20260507154511 | 59 | 192 | 1.7 | 6.1 | 0.00 | 0.28 | 0.05 | 45 | 1011.0 |
| 20260507153015 | 60 | 221 | 0.9 | 5.2 | 0.00 | 0.30 | 0.05 | 46 | 1011.4 |
| 20260507151504 | 59 | 185 | 0.9 | 4.3 | 0.00 | 0.32 | 0.05 | 47 | 1011.6 |
| 20260507150004 | 58 | 9 | 1.7 | 3.5 | 0.00 | 0.36 | 0.05 | 49 | 1011.6 |
| 20260507144508 | 58 | 338 | 2.6 | 4.3 | 0.00 | 0.38 | 0.05 | 49 | 1011.9 |
| 20260507143020 | 57 | 9 | 0.9 | 2.6 | 0.00 | 0.40 | 0.05 | 52 | 1012.2 |
| 20260507141521 | 57 | 217 | 0.9 | 3.5 | 0.00 | 0.42 | 0.05 | 61 | 1012.4 |
| 20260507140004 | 56 | 9 | 1.7 | 7.0 | 0.00 | 0.43 | 0.05 | 58 | 1012.4 |
| 20260507134507 | 54 | 352 | 0.9 | 4.3 | 0.00 | 0.43 | 0.05 | 56 | 1012.6 |
| 20260507133011 | 54 | 19 | 1.7 | 5.2 | 0.00 | 0.44 | 0.05 | 59 | 1012.6 |
| 20260507131519 | 53 | 202 | 0.0 | 6.1 | 0.00 | 0.45 | 0.05 | 66 | 1012.4 |
| 20260507130027 | 52 | 45 | 0.0 | 4.3 | 0.00 | 0.46 | 0.05 | 66 | 1012.3 |
| 20260507124509 | 52 | 350 | 0.9 | 2.6 | 0.00 | 0.46 | 0.05 | 67 | 1012.4 |
| 20260507123008 | 51 | 20 | 1.7 | 6.1 | 0.00 | 0.47 | 0.05 | 69 | 1012.4 |
| 20260507121516 | 51 | 316 | 1.7 | 4.3 | 0.00 | 0.47 | 0.05 | 68 | 1012.4 |
| 20260507120019 | 51 | 13 | 0.9 | 2.6 | 0.00 | 0.47 | 0.05 | 73 | 1012.2 |
| 20260507114537 | 50 | 277 | 0.0 | 1.7 | 0.00 | 0.47 | 0.05 | 74 | 1012.2 |
| 20260507113023 | 50 | 250 | 0.0 | 1.7 | 0.00 | 0.47 | 0.05 | 76 | 1012.3 |
| 20260507111510 | 49 | 323 | 0.0 | 1.7 | 0.00 | 0.47 | 0.05 | 80 | 1012.1 |
| 20260507110017 | 49 | 195 | 0.0 | 1.7 | 0.00 | 0.47 | 0.05 | 80 | 1012.0 |
| 20260507104532 | 49 | 195 | 0.0 | 0.0 | 0.00 | 0.47 | 0.05 | 85 | 1011.6 |
| 20260507103027 | 49 | 195 | 0.0 | 1.7 | 0.00 | 0.47 | 0.05 | 83 | 1011.2 |
| 20260507101515 | 49 | 195 | 0.0 | 1.7 | 0.00 | 0.47 | 0.05 | 85 | 1011.1 |
| 20260507100017 | 49 | 321 | 0.0 | 0.0 | 0.00 | 0.47 | 0.05 | 86 | 1011.0 |
| 20260507094521 | 49 | 186 | 0.0 | 0.0 | 0.00 | 0.47 | 0.05 | 89 | 1010.9 |
| 20260507093030 | 49 | 186 | 0.0 | 0.0 | 0.00 | 0.47 | 0.05 | 89 | 1010.8 |
| 20260507091531 | 49 | 186 | 0.0 | 0.0 | 0.00 | 0.47 | 0.05 | 91 | 1010.8 |
| 20260507090003 | 49 | 186 | 0.0 | 0.0 | 0.00 | 0.47 | 0.05 | 91 | 1010.2 |
| 20260507084506 | 49 | 186 | 0.0 | 0.0 | 0.00 | 0.47 | 0.05 | 92 | 1010.2 |
| 20260507083004 | 49 | 186 | 0.0 | 0.0 | 0.00 | 0.47 | 0.05 | 92 | 1010.6 |
| 20260507081507 | 49 | 171 | 0.0 | 0.0 | 0.00 | 0.47 | 0.05 | 92 | 1010.4 |
| 20260507080003 | 50 | 171 | 0.0 | 0.0 | 0.00 | 0.47 | 0.05 | 92 | 1010.6 |
| 20260507074504 | 50 | 171 | 0.0 | 0.0 | 0.00 | 0.47 | 0.05 | 92 | 1010.7 |
| 20260507073005 | 50 | 171 | 0.0 | 0.0 | 0.01 | 0.47 | 0.05 | 93 | 1010.7 |
| 20260507071505 | 51 | 171 | 0.0 | 0.0 | 0.01 | 0.47 | 0.05 | 94 | 1011.0 |
| 20260507070011 | 51 | 171 | 0.0 | 0.0 | 0.01 | 0.47 | 0.05 | 94 | 1011.1 |
| 20260507064505 | 51 | 171 | 0.0 | 0.0 | 0.01 | 0.47 | 0.05 | 94 | 1011.0 |
| 20260507063004 | 51 | 171 | 0.0 | 0.0 | 0.01 | 0.46 | 0.04 | 93 | 1010.9 |
| 20260507061504 | 51 | 171 | 0.0 | 0.0 | 0.03 | 0.46 | 0.04 | 92 | 1010.8 |
| 20260507060005 | 51 | 171 | 0.0 | 0.0 | 0.03 | 0.46 | 0.04 | 92 | 1010.9 |
| 20260507054507 | 51 | 171 | 0.0 | 0.0 | 0.04 | 0.46 | 0.04 | 90 | 1011.1 |
| 20260507053007 | 51 | 171 | 0.0 | 0.0 | 0.03 | 0.45 | 0.03 | 89 | 1011.0 |
| 20260507051506 | 52 | 171 | 0.0 | 1.7 | 0.01 | 0.43 | 0.01 | 88 | 1010.9 |
| 20260507050012 | 52 | 171 | 0.0 | 1.7 | 0.01 | 0.43 | 0.01 | 87 | 1010.9 |
| 20260507044508 | 52 | 286 | 0.0 | 0.9 | 0.00 | 0.42 | 0.00 | 86 | 1010.4 |
| 20260507043019 | 53 | 290 | 0.0 | 1.7 | 0.00 | 0.42 | 0.00 | 85 | 1010.4 |
| 20260507041508 | 53 | 342 | 0.0 | 1.7 | 0.00 | 0.42 | 0.00 | 84 | 1010.2 |
| 20260507040008 | 53 | 23 | 0.0 | 1.7 | 0.00 | 0.42 | 0.00 | 84 | 1010.1 |
| 20260507034503 | 53 | 346 | 0.0 | 0.0 | 0.00 | 0.42 | 0.42 | 85 | 1010.4 |
| 20260507033008 | 53 | 346 | 0.0 | 1.7 | 0.00 | 0.42 | 0.42 | 85 | 1010.7 |
| 20260507031517 | 54 | 351 | 0.0 | 3.5 | 0.00 | 0.42 | 0.42 | 84 | 1010.3 |
| 20260507030012 | 54 | 323 | 1.7 | 5.2 | 0.00 | 0.42 | 0.42 | 85 | 1010.0 |
| 20260507024514 | 55 | 5 | 2.6 | 5.2 | 0.00 | 0.42 | 0.42 | 86 | 1010.0 |
| 20260507023008 | 56 | 9 | 1.7 | 3.5 | 0.00 | 0.42 | 0.42 | 88 | 1009.8 |
| 20260507021513 | 57 | 210 | 0.0 | 0.0 | 0.00 | 0.42 | 0.42 | 89 | 1010.0 |
| 20260507020013 | 57 | 210 | 0.0 | 1.7 | 0.00 | 0.42 | 0.42 | 89 | 1010.1 |
| 20260507014512 | 58 | 210 | 0.0 | 1.7 | 0.00 | 0.42 | 0.42 | 88 | 1010.1 |
| 20260507013020 | 58 | 165 | 0.0 | 1.7 | 0.00 | 0.42 | 0.42 | 88 | 1009.9 |
| 20260507011513 | 60 | 306 | 0.0 | 1.7 | 0.00 | 0.42 | 0.42 | 89 | 1009.5 |
| 20260507010015 | 61 | 299 | 0.0 | 6.1 | 0.00 | 0.42 | 0.42 | 91 | 1009.4 |
| 20260507004513 | 61 | 214 | 0.9 | 1.7 | 0.02 | 0.42 | 0.42 | 94 | 1009.0 |
| 20260507003019 | 62 | 215 | 0.0 | 1.7 | 0.07 | 0.42 | 0.42 | 93 | 1008.3 |
| 20260507001544 | 62 | 215 | 0.9 | 0.9 | 0.16 | 0.42 | 0.42 | 93 | 1008.1 |
| 20260507000016 | 62 | 215 | 0.9 | 1.7 | 0.17 | 0.42 | 0.42 | 92 | 1007.9 |
| 20260506234516 | 62 | 207 | 0.9 | 3.5 | 0.15 | 0.40 | 0.40 | 90 | 1007.9 |
| 20260506233019 | 64 | 182 | 0.9 | 2.6 | 0.10 | 0.35 | 0.35 | 89 | 1007.9 |
| 20260506231507 | 65 | 147 | 0.0 | 3.5 | 0.01 | 0.26 | 0.26 | 85 | 1007.5 |
| 20260506230009 | 66 | 209 | 0.9 | 4.3 | 0.00 | 0.25 | 0.25 | 82 | 1007.0 |
| 20260506224509 | 66 | 206 | 1.7 | 3.5 | 0.00 | 0.25 | 0.25 | 81 | 1007.0 |
| 20260506223003 | 67 | 215 | 0.9 | 4.3 | 0.00 | 0.25 | 0.25 | 81 | 1007.1 |
| 20260506221504 | 67 | 203 | 0.9 | 4.3 | 0.00 | 0.25 | 0.25 | 81 | 1007.1 |
| 20260506220008 | 67 | 198 | 1.7 | 4.3 | 0.00 | 0.25 | 0.25 | 80 | 1006.9 |
| 20260506214510 | 67 | 206 | 0.9 | 5.2 | 0.00 | 0.25 | 0.25 | 81 | 1006.8 |
| 20260506213012 | 66 | 209 | 1.7 | 4.3 | 0.00 | 0.25 | 0.25 | 83 | 1006.7 |
| 20260506211504 | 65 | 111 | 0.0 | 1.7 | 0.00 | 0.25 | 0.25 | 85 | 1006.5 |